Flag for U.S.A. Weather past 2 weeks in Vallejo, California, U.S.A.

Now
49 °F

Clear.


Feels Like: 47 °F
Forecast: 53 / 71 °F
Wind: 5 mph from West

Location: Napa County Airport

Current Time: May 29, 2015 at 11:55:32 PM

Latest Report: May 29, 2015 at 10:54 PM


Visibility: 10 mi

Pressure: 29.91 "Hg

Humidity: 97%

Dew point: 48 °F

Location of VallejoLocation

Historic Weather in Vallejo — Graph

°F

Vallejo temperature yesterday

Maximum temperature yesterday: 71 °F (at 4:54 PM)
Minimum temperature yesterday: 51 °F (at 4:54 AM)
Average temperature yesterday: 57 °F

Past Weeks' High & Low Weather Summary

 TemperatureHumidityPressure
High71 °F (May 28, 4:54 PM)97% (May 15, 1:54 AM)30.09 "Hg (May 15, 1:54 AM)
Low46 °F (May 16, 3:54 AM)49% (May 15, 2:54 PM)29.82 "Hg (May 14, 10:54 PM)
Average57 °F78%29.95 "Hg
* Reported May 14 10:54 PM — May 29 10:54 PM, Vallejo, Weather by CustomWeather, © 2015

Note: Actual official high and low records may vary slightly from our data, if they occured in-between our weather recording intervals... More about our weather records

Advertising

Vallejo weather history for previous 24 hours

 ConditionsComfort  
Time TempWeatherWind HumidityBarometerVisibility
10:54 PM
Fri, May 29
49 °FClear.5 mph97%29.91 "Hg10 mi
9:54 PM52 °FClear.6 mph93%29.91 "Hg10 mi
8:54 PM54 °FSunny.12 mph86%29.89 "Hg10 mi
7:54 PM58 °FSunny.12 mph84%29.88 "Hg10 mi
6:54 PM62 °FSunny.14 mph75%29.87 "Hg10 mi
5:54 PM65 °FSunny.15 mph70%29.87 "Hg10 mi
4:54 PM67 °FSunny.14 mph66%29.88 "Hg10 mi
3:54 PM68 °FSunny.12 mph61%29.89 "Hg10 mi
2:54 PM68 °FSunny.10 mph59%29.91 "Hg10 mi
1:54 PM64 °FSunny.8 mph65%29.92 "Hg10 mi
12:54 PM62 °FSunny.9 mph70%29.95 "Hg10 mi
11:54 AM59 °FOvercast.12 mph72%29.96 "Hg10 mi
10:54 AM56 °FLow clouds.7 mph81%29.97 "Hg10 mi
9:54 AM54 °FLow clouds.8 mph86%29.97 "Hg10 mi
8:54 AM52 °FLow clouds.No wind89%29.96 "Hg10 mi
7:54 AM51 °FLow clouds.3 mph92%29.96 "Hg10 mi
6:54 AM51 °FLow clouds.6 mph92%29.95 "Hg10 mi
5:54 AM51 °FLow clouds.6 mph92%29.94 "Hg10 mi
4:54 AM51 °FLow clouds.7 mph89%29.93 "Hg10 mi
3:54 AM51 °FLow clouds.7 mph89%29.94 "Hg10 mi
2:54 AM51 °FLow clouds.9 mph92%29.95 "Hg10 mi
1:54 AM51 °FLow clouds.7 mph92%29.95 "Hg10 mi
12:54 AM51 °FLow clouds.5 mph92%29.96 "Hg10 mi
11:54 PM
Thu, May 28
52 °FLow clouds.3 mph89%29.96 "Hg10 mi
11:02 PM53 °FPassing clouds.5 mph89%29.99 "Hg10 mi
Weather by CustomWeather, © 2015

See weather overviewHow to use our weather pages